Flight Track Log - Related Links

Times and Time Zones

All times are in EDT time to prevent confusion due to time zone crossing. See the N5253C flight status page for this flight to view local times or setup timezone preferences in your user account.

Time Position Orientation Groundspeed Altitude Reporting Facility
EDT Latitude Longitude Course Direction KTS MPH feet Rate Location/Type
Tue 02:21:51 PM 42.2275 -83.5478 224° Southwest 80 92 1,100  Level Cleveland Center
Tue 02:23:13 PM 42.2064 -83.5753 224° Southwest 84 97 2,200 791 Climbing Cleveland Center
Tue 02:24:00 PM 42.1981 -83.6000 246° West 91 105 2,800 581 Climbing Cleveland Center
Tue 02:24:15 PM 42.2000 -83.6008 342° North 85 98 2,800 295 Level Cleveland Center
Tue 02:25:01 PM 42.2100 -83.6356 291° West 102 117 3,100 194 Climbing Cleveland Center
Tue 02:25:17 PM 42.2114 -83.6347 24° Northeast 96 110 3,000  Descending Cleveland Center
Tue 02:26:02 PM 42.2358 -83.6253 16° North 92 106 3,100 97 Climbing Cleveland Center
Tue 02:26:19 PM 42.2358 -83.6244 90° East 95 109 3,100  Level Cleveland Center
Tue 02:27:03 PM 42.2581 -83.6114 23° Northeast 91 105 3,100 -97 Level Cleveland Center
Tue 02:27:21 PM 42.2633 -83.6036 47° Northeast 93 107 3,000  Descending Cleveland Center
Tue 02:28:05 PM 42.2803 -83.5950 21° North 90 104 3,100 97 Climbing Cleveland Center
Tue 02:28:23 PM 42.2858 -83.5869 47° Northeast 92 106 3,100  Level Cleveland Center
Tue 02:29:05 PM 42.3047 -83.5786 18° North 95 109 3,100  Level Cleveland Center
Tue 02:29:25 PM 42.3094 -83.5725 44° Northeast 93 107 3,100 -393 Level Cleveland Center
Tue 02:30:06 PM 42.3289 -83.5625 21° North 89 102 2,700 -581 Descending Cleveland Center
Tue 02:30:27 PM 42.3317 -83.5561 60° Northeast 92 106 2,500 -295 Descending Cleveland Center
Tue 02:31:07 PM 42.3456 -83.5394 42° Northeast 88 101 2,400 -97 Descending Cleveland Center
Tue 02:31:29 PM 42.3478 -83.5306 71° East 89 102 2,400  Level Cleveland Center
Tue 02:32:08 PM 42.3625 -83.5108 45° Northeast 94 108 2,400  Level Cleveland Center
Tue 02:32:31 PM 42.3658 -83.5053 51° Northeast 91 105 2,400 109 Level Cleveland Center
Tue 02:33:03 PM 42.3750 -83.4842 60° Northeast 95 109 2,500  Climbing Cleveland Center
Tue 02:33:33 PM 42.3750 -83.4731 90° East 101 116 2,400 -98 Descending Cleveland Center
Tue 02:34:04 PM 42.3797 -83.4511 74° East 89 102 2,400  Level Cleveland Center
Tue 02:34:35 PM 42.3789 -83.4408 96° East 92 106 2,400  Level Cleveland Center
Tue 02:35:11 PM 42.3847 -83.4150 73° East 87 100 2,400  Level Cleveland Center
Tue 02:35:37 PM 42.3781 -83.4050 132° Southeast 94 108 2,400 98 Level Cleveland Center
Tue 02:36:12 PM 42.3644 -83.4036 176° South 92 106 2,500  Climbing Cleveland Center
Tue 02:36:39 PM 42.3528 -83.4025 176° South 97 112 2,400  Descending Cleveland Center
Tue 02:37:13 PM 42.3375 -83.4025 180° South 91 105 2,500  Climbing Cleveland Center
Tue 02:37:42 PM 42.3275 -83.4036 185° South 93 107 2,400 -98 Descending Cleveland Center
Tue 02:38:14 PM 42.3153 -83.4164 218° Southwest 95 109 2,400 -97 Level Cleveland Center
Tue 02:38:44 PM 42.3069 -83.4258 220° Southwest 94 108 2,300  Descending Cleveland Center
Tue 02:39:27 PM 42.2939 -83.4500 234° Southwest 99 114 2,400 97 Climbing Cleveland Center
Tue 02:39:46 PM 42.2900 -83.4539 216° Southwest 96 110 2,400 -590 Level Cleveland Center
Tue 02:40:28 PM 42.2753 -83.4728 224° Southwest 85 98 1,800 -484 Descending Cleveland Center
Tue 02:40:48 PM 42.2703 -83.4786 221° Southwest 93 107 1,900 -537 Climbing Cleveland Center
Tue 02:41:35 PM 42.2586 -83.4986 232° Southwest 94 108 1,200 -774 Descending Cleveland Center
Tue 02:41:50 PM 42.2558 -83.5008 211° Southwest 87 100 1,100  Descending Cleveland Center
Tue 02:42:36 PM 42.2397 -83.5269 230° Southwest 99 114 1,200 194 Climbing Cleveland Center
Tue 02:42:52 PM 42.2381 -83.5269 180° South 90 104 1,300 837 Climbing Cleveland Center
Tue 02:43:19 PM 42.2400 -83.5494 277° West 98 113 1,800 774 Climbing Cleveland Center
Tue 02:43:54 PM 42.2444 -83.5619 296° West 101 116 2,100 658 Climbing Cleveland Center
Tue 02:44:32 PM 42.2533 -83.5911 292° West 99 114 2,600 677 Climbing Cleveland Center
Tue 02:44:56 PM 42.2567 -83.6033 290° West 100 115 2,800 436 Climbing Cleveland Center
Tue 02:45:27 PM 42.2636 -83.6208 298° West 103 119 3,000 290 Climbing Cleveland Center
Tue 02:45:58 PM 42.2761 -83.6331 324° Northwest 110 127 3,100 98 Climbing Cleveland Center
Tue 02:46:28 PM 42.2889 -83.6442 327° Northwest 99 114 3,100 -97 Level Cleveland Center
Tue 02:47:00 PM 42.2997 -83.6497 339° North 101 116 3,000 -109 Descending Cleveland Center
Tue 02:47:23 PM 42.3128 -83.6589 333° Northwest 102 117 3,000 290 Level Cleveland Center
Tue 02:48:02 PM 42.3258 -83.6647 342° North 101 116 3,300 600 Climbing Cleveland Center
Tue 02:48:23 PM 42.3397 -83.6656 357° North 104 120 3,600 194 Climbing Cleveland Center
Tue 02:49:04 PM 42.3547 -83.6642 North 103 119 3,500 -109 Descending Cleveland Center
Tue 02:49:18 PM 42.3667 -83.6669 350° North 104 120 3,500 97 Level Cleveland Center
Tue 02:50:06 PM 42.3833 -83.6658 North 103 119 3,600 90 Climbing Cleveland Center
Tue 02:50:25 PM 42.3964 -83.6628 10° North 96 110 3,600  Level Cleveland Center
Tue 02:51:09 PM 42.3997 -83.6428 77° East 100 115 3,600 -98 Level Cleveland Center
Tue 02:51:26 PM 42.4053 -83.6300 60° Northeast 94 108 3,500 -97 Descending Cleveland Center
Tue 02:52:11 PM 42.3958 -83.6078 120° Southeast 93 107 3,500 98 Level Cleveland Center
Tue 02:52:27 PM 42.3928 -83.6028 130° Southeast 85 98 3,600  Climbing Cleveland Center
Tue 02:53:13 PM 42.3786 -83.5833 135° Southeast 91 105 3,500 -98 Descending Cleveland Center
Tue 02:53:28 PM 42.3739 -83.5775 138° Southeast 90 104 3,500 97 Level Cleveland Center
Tue 02:54:15 PM 42.3567 -83.5689 160° South 95 109 3,600 98 Climbing Cleveland Center
Tue 02:54:29 PM 42.3517 -83.5686 178° South 92 106 3,600 -97 Level Cleveland Center
Tue 02:55:17 PM 42.3339 -83.5606 161° South 89 102 3,500 -393 Descending Cleveland Center
Tue 02:55:30 PM 42.3272 -83.5594 173° South 84 97 3,200 -97 Descending Cleveland Center
Tue 02:56:19 PM 42.3100 -83.5503 159° South 89 102 3,400 98 Climbing Cleveland Center
Tue 02:56:31 PM 42.3031 -83.5475 164° South 95 109 3,300 -871 Descending Cleveland Center
Tue 02:57:21 PM 42.2822 -83.5364 158° South 89 102 2,500 -982 Descending Cleveland Center
Tue 02:57:26 PM 42.2808 -83.5358 164° South 89 102 2,400 -1,017 Descending Cleveland Center
Tue 02:58:20 PM 42.2606 -83.5272 163° South 85 98 1,500 -947 Descending Cleveland Center
Tue 02:58:23 PM 42.2600 -83.5250 109° East 88 101 1,500 -92 Level Cleveland Center
Tue 02:59:25 PM 42.2369 -83.5247 179° South 94 108 1,400  Descending Cleveland Center
Tue 02:59:27 PM 42.2331 -83.5289 218° Southwest 106 122 1,500  Climbing Cleveland Center
Tue 03:00:27 PM 42.2361 -83.5053 80° East 94 108 1,400 -98 Descending Cleveland Center
Tue 03:00:28 PM 42.2414 -83.5047 North 92 106 1,400 -387 Level Cleveland Center
Tue 03:01:29 PM 42.2458 -83.5172 296° West 92 106 1,000 -179 Descending Cleveland Center
Tue 03:01:35 PM 42.2397 -83.5269 230° Southwest 109 125 1,200 984 Climbing Cleveland Center
Tue 03:02:30 PM 42.2467 -83.5450 297° West 90 104 2,000 857 Climbing Cleveland Center
Tue 03:02:31 PM 42.2467 -83.5450 297° West 92 106 2,000 787 Level Cleveland Center
Tue 03:03:31 PM 42.2686 -83.5567 339° North 85 98 2,800 762 Climbing Cleveland Center
Tue 03:03:34 PM 42.2694 -83.5550 56° Northeast 88 101 2,800 554 Level Cleveland Center
Tue 03:04:36 PM 42.2894 -83.5656 339° North 82 94 3,400 656 Climbing Cleveland Center
Tue 03:04:38 PM 42.2928 -83.5686 326° Northwest 70 81 3,500 581 Climbing Cleveland Center
Tue 03:05:38 PM 42.3156 -83.5747 349° North 87 100 4,000 295 Climbing Cleveland Center
Tue 03:06:40 PM 42.3369 -83.5775 355° North 90 104 4,100 49 Climbing Cleveland Center
Tue 03:07:40 PM 42.3672 -83.5822 353° North 92 106 4,100 -97 Level Cleveland Center
Tue 03:07:42 PM 42.3633 -83.5803 160° South 93 107 4,000 94 Descending Cleveland Center
Tue 03:08:44 PM 42.3883 -83.5872 348° North 92 106 4,200 185 Climbing Cleveland Center
Tue 03:08:47 PM 42.3958 -83.5919 335° Northwest 98 113 4,200  Level Cleveland Center
Tue 03:09:46 PM 42.4142 -83.5978 347° North 94 108 4,200  Level Cleveland Center
Tue 03:09:48 PM 42.4206 -83.5983 356° North 81 93 4,200 97 Level Cleveland Center
Tue 03:10:48 PM 42.4436 -83.5967 North 91 105 4,300  Climbing Cleveland Center
Tue 03:10:49 PM 42.4453 -83.6019 293° West 95 109 4,200 -194 Descending Cleveland Center
Tue 03:11:50 PM 42.4342 -83.6122 214° Southwest 96 110 4,100  Descending Cleveland Center
Tue 03:12:51 PM 42.4147 -83.5919 142° Southeast 91 105 4,200  Climbing Cleveland Center
Tue 03:12:52 PM 42.4164 -83.5919 360° North 87 100 4,100 -98 Descending Cleveland Center
Tue 03:13:52 PM 42.4136 -83.5775 105° East 90 104 4,100  Level Cleveland Center
Tue 03:13:54 PM 42.4097 -83.5747 152° Southeast 90 104 4,100  Level Cleveland Center
Tue 03:14:53 PM 42.4397 -83.5925 336° Northwest 103 119 4,100 -97 Level Cleveland Center
Tue 03:14:56 PM 42.4350 -83.5894 154° Southeast 99 114 4,000 -98 Descending Cleveland Center
Tue 03:15:54 PM 42.4342 -83.6089 267° West 81 93 4,000  Level Cleveland Center
Tue 03:15:58 PM 42.4319 -83.6061 137° Southeast 95 109 4,000 197 Level Cleveland Center
Tue 03:16:55 PM 42.4144 -83.5947 154° Southeast 88 101 4,200 190 Climbing Cleveland Center
Tue 03:17:01 PM 42.4114 -83.5919 146° Southeast 87 100 4,200 -109 Level Cleveland Center
Tue 03:17:50 PM 42.4056 -83.5764 117° Southeast 91 105 4,100 -194 Descending Cleveland Center
Tue 03:18:03 PM 42.4092 -83.5744 22° Northeast 111 128 4,000 -100 Descending Cleveland Center
Tue 03:18:50 PM 42.4336 -83.5917 333° Northwest 103 119 4,000 -97 Level Cleveland Center
Tue 03:19:05 PM 42.4358 -83.5917 360° North 111 128 3,900 -492 Descending Cleveland Center
Tue 03:19:51 PM 42.4572 -83.5839 15° North 92 106 3,500 -387 Descending Cleveland Center
Tue 03:20:07 PM 42.4550 -83.5775 115° Southeast 101 116 3,500 -492 Level Cleveland Center
Tue 03:20:52 PM 42.4681 -83.5542 53° Northeast 91 105 3,000 -581 Descending Cleveland Center
Tue 03:21:09 PM 42.4672 -83.5472 99° East 94 108 2,900  Descending Cleveland Center
Tue 03:21:53 PM 42.4731 -83.5181 75° East 90 104 3,000  Climbing Cleveland Center
Tue 03:22:11 PM 42.4689 -83.5136 142° Southeast 106 122 2,900 -537 Descending Cleveland Center
Tue 03:23:00 PM 42.4608 -83.4853 111° Southeast 92 106 2,400 -484 Descending Cleveland Center
Tue 03:23:13 PM 42.4586 -83.4772 110° East 95 109 2,400 98 Level Cleveland Center
Tue 03:24:01 PM 42.4486 -83.4553 122° Southeast 87 100 2,500  Climbing Cleveland Center
Tue 03:24:15 PM 42.4456 -83.4489 123° Southeast 90 104 2,400 -122 Descending Cleveland Center
Tue 03:24:50 PM 42.4353 -83.4364 138° Southeast 86 99 2,400  Level Cleveland Center
Tue 03:25:17 PM 42.4269 -83.4278 143° Southeast 87 100 2,400  Level Cleveland Center
Tue 03:26:03 PM 42.4119 -83.4133 145° Southeast 86 99 2,400  Level Cleveland Center
Tue 03:26:19 PM 42.4072 -83.4097 151° Southeast 86 99 2,400  Level Cleveland Center
Tue 03:27:04 PM 42.3875 -83.4069 174° South 90 104 2,400  Level Cleveland Center
Tue 03:27:21 PM 42.3828 -83.4056 168° South 91 105 2,400 98 Level Cleveland Center
Tue 03:28:05 PM 42.3619 -83.4089 187° South 94 108 2,500 97 Climbing Cleveland Center
Tue 03:28:23 PM 42.3581 -83.4083 174° South 89 102 2,500  Level Cleveland Center
Tue 03:28:59 PM 42.3386 -83.4142 193° South 96 110 2,500  Level Cleveland Center
Tue 03:29:26 PM 42.3286 -83.4239 216° Southwest 96 110 2,500 -109 Level Cleveland Center
Tue 03:29:54 PM 42.3161 -83.4336 210° Southwest 102 117 2,400 -97 Descending Cleveland Center
Tue 03:30:28 PM 42.3044 -83.4417 207° Southwest 98 113 2,400 -98 Level Cleveland Center
Tue 03:30:55 PM 42.2958 -83.4531 224° Southwest 83 96 2,300 -290 Descending Cleveland Center
Tue 03:31:30 PM 42.2850 -83.4625 213° Southwest 94 108 2,100 -537 Descending Cleveland Center
Tue 03:32:02 PM 42.2747 -83.4811 233° Southwest 91 105 1,700 -677 Descending Cleveland Center
Tue 03:32:32 PM 42.2669 -83.4903 221° Southwest 91 105 1,400 -492 Descending Cleveland Center
Tue 03:33:03 PM 42.2581 -83.5069 234° Southwest 95 109 1,200 -290 Descending Cleveland Center
Tue 03:33:34 PM 42.2492 -83.5161 217° Southwest 91 105 1,100 -258 Descending Cleveland Center
Tue 03:34:36 PM 42.2339 -83.5358 224° Southwest 91 105 800 -290 Descending Cleveland Center

Login

Don't have an account? Register now (free) for customized features, flight alerts, and more!